This demonstration page uses our WeatherBlox Daily Observations layout. Learn more.

Left ArrowRight Arrow

Hourly Observations for March 9, 2020

Temp ( °F °C ) Dew Point ( °F °C ) Humidity (%) Winds ( mph kmh ) Pressure ( in mb ) Visibility ( mi km ) Precip ( " mm )
12:31 am 00:31 Cloudy with Light Rain 57 14 52 11 82 82 SSW 6 9 29.94 1014 10 16 0.00 0.00
12:40 am 00:40 Cloudy with Light Rain 57 14 52 11 82 82 WSW 7 11 29.96 1014 10 16 0.00 0.00
12:56 am 00:56 Cloudy with Light Rain 56 13.4 53 11.4 88 88 SW 5 7 29.96 1014 9 14 0.00 0.00
1:26 am 01:26 Cloudy with Rain 55 13 54 12 94 94 WSW 3 6 29.96 1014 6 10 0.00 0.00
1:56 am 01:56 Cloudy with Rain 55 12.6 53 11.8 95 95 SW 3 6 29.96 1014 7 11 0.11 2.79
2:56 am 02:56 Cloudy with Light Rain 54 12 53 11.5 97 97 Calm 29.93 1014 7 11 0.07 1.78
3:04 am 03:04 Cloudy with Light Rain 54 12 52 11 94 94 E 3 6 29.93 1014 7 11 0.00 0.00
3:56 am 03:56 Cloudy with Light Rain 44 6.9 42 5.7 92 92 NNW 13 20 29.93 1014 10 16 0.03 0.76
4:41 am 04:41 Cloudy with Light Rain 41 5 39 4 93 93 N 13 20 29.93 1014 7 11 0.00 0.00
4:56 am 04:56 Cloudy with Light Rain 40 4.6 38 3.4 92 92 NNW 14 22 29.93 1014 6 10 0.02 0.51
5:56 am 05:56 Cloudy with Light Rain 38 3.4 36 2.2 92 92 NNW 9 15 29.95 1014 9 14 0.03 0.76
6:56 am 06:56 Cloudy 38 3.4 36 2.4 93 93 N 9 15 29.96 1015 9 14 0.01 0.25
7:56 am 07:56 Cloudy with Drizzle 37 2.9 35 1.6 91 91 N 12 19 29.97 1015 8 13 0.02 0.51
8:11 am 08:11 Cloudy with Drizzle 37 3 36 2 93 93 N 7 11 29.97 1015 6 10 0.00 0.00
8:56 am 08:56 Cloudy with Light Rain 37 2.9 35 1.6 91 91 N 7 11 29.97 1015 6 10 0.01 0.25
9:11 am 09:11 Cloudy 37 3 36 2 93 93 N 12 19 29.97 1015 9 14 0.00 0.00
9:41 am 09:41 Cloudy 37 3 36 2 93 93 N 12 19 29.97 1015 10 16 0.00 0.00
9:56 am 09:56 Cloudy 37 2.9 35 1.4 90 90 N 10 17 29.98 1015 10 16 0.01 0.25
10:11 am 10:11 Cloudy 37 3 34 1 87 87 N 10 17 29.98 1015 10 16 0.00 0.00
10:41 am 10:41 Cloudy 37 3 34 1 87 87 N 12 19 29.98 1015 10 16 0.00 0.00
10:56 am 10:56 Cloudy with Drizzle 37 2.8 35 1.5 91 91 N 14 22 29.98 1015 7 11 0.00 0.00
11:56 am 11:56 Cloudy with Light Rain 37 2.6 34 1.3 91 91 N 12 19 29.99 1016 8 13 0.01 0.25
12:11 pm 12:11 Cloudy 37 3 34 1 87 87 N 14 22 29.97 1015 7 11 0.00 0.00
12:41 pm 12:41 Cloudy with Light Rain 37 3 36 2 93 93 NNE 10 17 29.98 1015 8 13 0.00 0.00
12:56 pm 12:56 Cloudy with Light Rain 38 3.1 35 1.5 89 89 N 9 15 30.01 1016 10 16 0.03 0.76
1:11 pm 13:11 Cloudy with Light Rain 37 3 34 1 87 87 N 13 20 30.01 1016 10 16 0.00 0.00
1:26 pm 13:26 Cloudy 37 3 34 1 87 87 N 16 26 30.01 1016 10 16 0.00 0.00
1:56 pm 13:56 Cloudy 37 2.8 34 0.9 87 87 N 10 17 30.01 1016 10 16 0.01 0.25
2:30 pm 14:30 Cloudy with Light Rain 36 2 34 1 93 93 NNW 14 22 30.01 1016 10 16 0.00 0.00
2:56 pm 14:56 Cloudy with Drizzle 36 2.1 32 0.2 87 87 NNW 17 28 30.01 1016 10 16 0.00 0.00
3:11 pm 15:11 Cloudy 36 2 32 0 87 87 N 15 24 30.00 1016 10 16 0.00 0.00
3:27 pm 15:27 Cloudy with Light Rain 36 2 32 0 87 87 N 15 24 30.02 1017 10 16 0.00 0.00
3:56 pm 15:56 Cloudy with Light Rain 35 1.7 32 -0.1 88 88 NNW 14 22 30.04 1017 10 16 0.02 0.51
4:11 pm 16:11 Cloudy with Light Rain 36 2 32 0 87 87 NNW 10 17 30.06 1018 8 13 0.00 0.00
4:41 pm 16:41 Cloudy with Light Rain 36 2 32 0 87 87 NW 13 20 30.08 1019 10 16 0.00 0.00
4:56 pm 16:56 Cloudy with Light Rain 35 1.5 31 -0.4 87 87 NNW 13 20 30.08 1019 10 16 0.03 0.76
5:35 pm 17:35 Cloudy 34 1 30 -1 87 87 NNW 14 22 30.09 1019 10 16 0.00 0.00
5:56 pm 17:56 Cloudy 35 1.4 31 -0.4 88 88 NNW 8 13 30.09 1019 10 16 0.02 0.51
6:40 pm 18:40 Cloudy with Light Rain 34 1 30 -1 87 87 NNW 14 22 30.11 1020 7 11 0.00 0.00
6:56 pm 18:56 Cloudy 34 1.1 30 -1 86 86 NNW 17 28 30.11 1020 10 16 0.01 0.25
7:11 pm 19:11 Cloudy 34 1 30 -1 87 87 NNW 14 22 30.12 1020 10 16 0.00 0.00
7:56 pm 19:56 Cloudy 33 0.7 29 -1.9 83 83 NW 15 24 30.15 1021 10 16 0.00 0.00
8:56 pm 20:56 Cloudy 33 0.6 28 -2 83 83 NNW 8 13 30.18 1022 10 16 0.00 0.00
9:56 pm 21:56 Cloudy 33 0.6 28 -2.1 82 82 NNW 8 13 30.23 1024 10 16 0.00 0.00
10:41 pm 22:41 Mostly Cloudy 32 0 28 -2 87 87 NW 6 9 30.24 1024 10 16 0.00 0.00
10:56 pm 22:56 Mostly Clear 32 0.2 28 -2.5 82 82 NW 7 11 30.24 1024 10 16 0.00 0.00
11:56 pm 23:56 Clear 30 -1 27 -3 86 86 NW 7 11 30.27 1025 10 16 0.00 0.00

Powered by AerisWeather